Погода В Ротбери

Австралия     32°44′31″S   151°20′09″E
темп.,
°C
ветер,
м/с
пор.,
м/с
влажн.,
%
обл.,
%
осадки,
мм/ч
давл.,
гПа
погр.,
м
26 февраля, пт
пт2623:00+18сз128921 0.1 101123
02:00+17зсз12890 0.0 101029
05:00+16зсз22920 0.0 100960
08:00+19з12770 0.0 101199
11:00+28сз36500 0.0 10111162
14:00+33сз463518 0.0 10092484
17:00+23вюв377656 0.0 1009413
20:00+21юв3886100 0.0 1012599
27 февраля, сб
сб2723:00+20юв3892100 0.2 1015511
02:00+19ююв2697100 0.5 1014389
05:00+18юв2797100 0.8 1013421
08:00+18юв2697100 0.3 1015419
11:00+19юв2596100 1.2 1015361
14:00+18ююв2499100 19.3 1014263
17:00+19всв0199100 22.0 101298
20:00+18ю129778 0.1 101267
28 февраля, вс
вс2823:00+17юв119949 0.1 101340
02:00+18зюз119877 0.0 101237
05:00+18юз119788 0.0 101225
08:00+19з119599 0.0 101388
11:00+22з1282100 0.0 1013380
14:00+28всв225778 0.0 10111123
17:00+27в346553 0.6 10101052
20:00+21вюв24920 0.4 1011128
1 марта, пн
пн123:00+19ююв22996 0.4 101375
02:00+19ю11988 0.0 101223
05:00+18зюз11994 0.0 101123
08:00+20зсз12946 0.0 101299
11:00+28ссз23563 0.0 1012635
14:00+33с24340 0.0 10102054
17:00+31ссз253630 0.0 10081056
20:00+24юв226122 0.0 100859
2 марта, вт
вт223:00+21зсз127412 0.0 101123
02:00+19ююз29911 0.0 1011547
05:00+19ю257847 0.0 1011603
08:00+19ю1575100 0.0 1014622
11:00+22ююв2364100 0.1 1014991
14:00+22юв3462100 0.1 10131071
17:00+20юв477097 0.3 1013825
20:00+17юв378097 0.0 1015656